#timestamp,LO_Frequency,Hit,StdDev 
1505228415.1,286046998.1,N,0.9
1505228416.0,286046998.1,N,0.8
1505228435.8,286047000.7,N,1.0
1505228455.6,286046998.5,N,1.0
1505228475.5,286047000.7,N,1.1
1505228495.3,286046998.5,N,1.1
1505228515.2,286046999.4,N,1.0
1505228535.9,286046999.6,N,1.0
1505228555.7,286047001.1,N,1.1
1505228575.6,286047000.6,N,1.1
1505228595.4,286047000.9,N,1.2
1505228615.3,286047001.0,N,1.2
1505228635.1,286047000.8,N,1.2
1505228636.0,286047000.8,N,1.2
1505228655.8,286046998.2,N,1.2
1505228675.7,286046998.1,N,1.2
1505228695.5,286046998.7,N,1.2
1505228715.4,286046998.8,N,1.2
1505228735.2,286046998.7,N,1.2
1505228755.0,286046998.1,N,1.2
1505228755.9,286046998.1,N,1.2
1505228775.8,286046998.6,N,1.1
1505228795.6,286046998.5,N,1.1
1505228815.5,286046996.7,N,1.2
1505228835.3,286046996.5,N,1.3
1505228855.1,286046999.1,N,1.2
1505228875.9,286046999.6,N,1.2
1505228895.7,286046996.7,N,1.3
1505228915.6,286046999.1,N,1.3
1505228935.4,286046997.7,N,1.3
1505228955.2,286046997.7,N,1.3
1505228975.1,286046997.7,N,1.3
1505228976.0,286046997.7,N,1.3
1505228995.8,286046997.8,N,1.3
1505229015.7,286046997.5,N,1.3
1505229035.5,286046995.4,Y,0.0
1505229055.3,286046995.3,P,1.7
1505229075.2,286046998.0,N,1.5
1505229095.0,286046997.2,N,1.3
1505229095.9,286046997.2,N,1.1
1505229115.8,286046995.4,Y,0.0
1505229135.6,286046999.0,P,0.9
1505229155.4,286046999.0,N,0.8
1505229175.3,286046999.6,N,0.9
1505229195.1,286046997.3,Y,0.0
1505229215.9,286046999.4,P,0.3
1505229235.7,286046999.6,N,0.4
1505229255.5,286046999.5,N,0.3
1505229275.4,286046999.2,N,0.3
1505229295.2,286046997.1,Y,0.0
1505229315.1,286046999.1,P,0.1
1505229316.0,286046999.1,P,0.1
1505229335.8,286046998.7,P,0.2
1505229355.7,286046998.8,Y,0.0
1505229375.5,286047001.0,P,1.0
1505229395.3,286047000.7,N,0.9
1505229415.2,286046999.9,N,0.8
1505229435.0,286047000.8,N,0.7
1505229435.9,286047000.8,N,0.7
1505229455.8,286046998.3,N,1.0
1505229475.6,286046999.0,N,1.0
1505229495.4,286046996.7,Y,0.0
1505229515.3,286046996.9,P,1.5
1505229535.1,286046996.7,N,1.5
1505229555.9,286046996.8,N,1.4
1505229575.7,286046997.2,N,1.2
1505229595.5,286046996.9,N,1.1
1505229615.4,286046996.8,N,1.1
1505229635.2,286046997.2,N,1.0
1505229655.1,286046997.4,N,1.0
1505229656.0,286046997.4,N,0.9
1505229675.8,286046997.3,Y,0.0
1505229695.7,286047001.1,P,1.9
1505229715.5,286046998.3,N,1.6
1505229735.3,286046998.1,N,1.4
1505229755.2,286046999.4,N,1.3
1505229775.0,286046996.6,N,1.5
1505229775.9,286046996.6,N,1.5
1505229795.8,286046999.6,N,1.5
1505229815.6,286046999.5,N,1.4
1505229835.4,286046999.5,N,1.4
1505229855.3,286046999.2,N,1.3
1505229875.1,286046998.8,N,1.3
1505229895.9,286046999.2,N,1.2
1505229915.7,286046999.2,N,1.2
1505229935.5,286046996.8,N,1.3
1505229955.4,286046997.3,N,1.3
1505229975.2,286046996.7,N,1.3
1505229995.1,286046997.4,N,1.3
1505229996.0,286046997.4,N,1.3
1505230015.8,286046999.2,N,1.2
1505230035.6,286046997.3,N,1.2
1505230055.5,286046997.6,N,1.2
1505230075.3,286046997.3,N,1.2
1505230095.1,286046996.7,N,1.2
1505230115.9,286046997.5,N,1.2
1505230135.7,286046997.7,N,1.2
1505230155.6,286046997.7,N,1.2
1505230175.4,286046997.4,N,1.2
1505230195.2,286046997.5,N,1.1
1505230215.1,286046994.9,Y,0.0
1505230216.0,286046994.9,P,1.6
1505230235.8,286046997.2,N,1.3
1505230255.7,286046996.6,N,1.2
1505230275.5,286046998.8,N,1.3
1505230295.3,286046999.0,N,1.4
1505230315.2,286046998.9,N,1.4
1505230335.0,286046999.1,N,1.4
1505230335.9,286046999.1,N,1.4
1505230355.8,286046998.4,N,1.3
1505230375.6,286046998.3,N,1.3
1505230395.4,286047001.0,N,1.5
1505230415.3,286047000.8,N,1.6
1505230435.1,286047000.8,N,1.6
1505230455.9,286047001.1,N,1.7
1505230475.7,286046998.8,N,1.6
1505230495.5,286046998.9,N,1.6
1505230515.4,286046999.4,N,1.5
1505230535.2,286046999.3,N,1.5
1505230555.1,286046999.2,N,1.5
1505230556.0,286046999.2,N,1.4
1505230575.8,286046999.5,N,1.4
1505230595.6,286046997.0,N,1.4
1505230615.5,286046999.0,N,1.4
1505230635.3,286046998.9,N,1.4
1505230655.2,286046999.1,N,1.3
1505230675.0,286046999.2,N,1.3
1505230675.9,286046999.2,N,1.3
1505230695.8,286046996.9,N,1.3
1505230715.6,286046996.6,N,1.4
1505230735.4,286046996.9,N,1.4
1505230755.3,286046997.6,N,1.2
1505230775.1,286046996.9,N,1.2
1505230795.9,286046996.8,N,1.2
1505230815.7,286046997.3,N,1.3
1505230835.5,286046997.7,N,1.3
1505230855.4,286046997.3,N,1.3
1505230875.2,286046996.8,N,1.3
1505230895.1,286046997.2,N,1.3
1505230896.0,286046997.2,N,1.4
1505230915.8,286046999.6,N,1.4
1505230935.6,286046996.8,N,1.3
1505230955.5,286046997.3,N,1.3
1505230975.3,286046997.2,N,1.2
1505230995.2,286046997.2,N,1.1
1505231015.9,286046996.9,N,1.1
1505231035.7,286046999.1,N,1.1
1505231055.6,286046999.1,N,1.1
1505231075.4,286046999.2,N,1.1
1505231095.3,286046999.5,N,1.1
1505231115.1,286046996.5,Y,0.0
1505231116.0,286046996.5,P,0.7
1505231135.8,286046999.8,N,1.4
1505231155.7,286047000.1,N,1.5
1505231175.5,286047002.7,N,2.1
1505231195.4,286046999.8,N,1.9
1505231215.2,286047000.2,N,1.8
1505231235.0,286047002.6,N,2.0
1505231235.9,286047002.6,N,2.0
1505231255.8,286047002.7,N,2.1
1505231275.6,286047002.4,N,2.0
1505231295.5,286047002.1,N,2.0
1505231315.3,286047001.4,N,1.9
1505231335.1,286047001.3,N,1.9
1505231355.9,286047001.6,N,1.8
1505231375.7,286047001.4,N,1.7
1505231395.5,286047004.0,N,1.8
1505231415.4,286047004.4,N,1.9
1505231435.2,286047002.6,N,1.9
1505231455.1,286047004.1,N,2.0
1505231456.0,286047004.1,N,2.0
1505231475.8,286047003.8,N,2.0
1505231495.7,286047003.8,N,2.0
1505231515.5,286047003.7,N,2.0
1505231535.3,286047005.9,N,2.1
1505231555.2,286047006.0,N,2.2
1505231575.0,286047003.1,N,2.2
1505231575.9,286047003.1,N,2.1
1505231595.7,286047004.0,N,2.1
1505231615.6,286047003.1,N,2.1
1505231635.4,286047003.2,N,1.9
1505231655.3,286047003.9,N,1.6
1505231675.1,286047003.5,N,1.5
1505231695.8,286047003.7,N,1.4
1505231715.7,286047003.9,N,1.4
1505231735.5,286047003.2,N,1.2
1505231755.4,286047004.2,Y,0.0
1505231775.2,286046998.5,P,2.3
1505231795.0,286047000.5,N,1.9
1505231795.9,286047000.5,N,1.7
1505231815.8,286047000.6,N,1.5
1505231835.6,286047000.0,N,1.4
1505231855.5,286046999.8,N,1.3
1505231875.3,286047000.0,N,1.2
1505231895.2,286047002.7,N,1.4
1505231915.9,286047002.3,N,1.4
1505231935.7,286047001.6,N,1.3
1505231955.6,286047003.9,N,1.5
1505231975.4,286047004.2,N,1.7
1505231995.3,286047001.4,N,1.6
